Home > Weather > Daly City > Past weeks

Flag for USA Past Weather in Daly City, California, USA — Yesterday and Last 2 Weeks

Now
61 °F

Passing clouds.


Feels Like: 61 °F
Forecast: 53 / 66 °F
Wind: 6 mph from Northeast

Location: San Francisco International Airport

Current Time: May 27, 2016 at 11:12:25 AM

Latest Report: May 27, 2016 at 9:56 AM


Visibility: 10 mi

Pressure: 29.97 "Hg

Humidity: 81%

Dew Point: 55 °F

Location of Daly CityLocation

Past Weather in Daly City — Graph

°F

Daly City Temperature Yesterday

Maximum temperature yesterday: 70 °F (at 1:56 PM)
Minimum temperature yesterday: 55 °F (at 2:56 AM)
Average temperature yesterday: 60 °F

High & Low Weather Summary for the Past Weeks

 TemperatureHumidityPressure
High87 °F (May 17, 1:56 PM)100% (May 14, 7:56 PM)30.14 "Hg (May 14, 7:56 PM)
Low52 °F (May 20, 4:56 AM)50% (May 17, 9:56 AM)29.78 "Hg (May 19, 5:56 PM)
Average60 °F73%29.99 "Hg
* Reported May 12 9:56 AM — May 27 9:56 AM, Daly City, Weather by CustomWeather, © 2016

Note: Actual official high and low records may vary slightly from our data, if they occured in-between our weather recording intervals... More about our weather records

Advertising

Daly City Weather History for the Previous 24 Hours

Scroll right to see more
 ConditionsComfort  
Time TempWeatherWind HumidityBarometerVisibility
9:56 AM
Fri, May 27
61 °FPassing clouds.6 mph81%29.97 "Hg10 mi
8:56 AM60 °FPassing clouds.7 mph86%29.97 "Hg10 mi
7:56 AM59 °FPassing clouds.No wind87%29.96 "Hg10 mi
6:56 AM55 °FPassing clouds.No wind74%29.96 "Hg10 mi
5:56 AM53 °FPassing clouds.No wind80%29.96 "Hg10 mi
4:56 AM54 °FPassing clouds.No wind80%29.96 "Hg10 mi
3:56 AM53 °FPassing clouds.5 mph80%29.97 "Hg10 mi
2:56 AM55 °FPassing clouds.6 mph80%29.98 "Hg10 mi
1:56 AM55 °FPassing clouds.3 mph80%29.99 "Hg10 mi
12:56 AM56 °FPassing clouds.3 mph81%30.00 "Hg10 mi
11:56 PM
Thu, May 26
55 °FPassing clouds.6 mph80%30.01 "Hg10 mi
10:56 PM56 °FPassing clouds.15 mph81%30.02 "Hg10 mi
9:56 PM56 °FPassing clouds.12 mph81%30.02 "Hg10 mi
8:56 PM56 °FPassing clouds.14 mph77%30.01 "Hg10 mi
7:56 PM58 °FPassing clouds.13 mph78%30.02 "Hg10 mi
6:56 PM61 °FPassing clouds.14 mph72%30.02 "Hg10 mi
5:56 PM62 °FPassing clouds.23 mph75%30.03 "Hg10 mi
4:56 PM63 °FPassing clouds.22 mph75%30.05 "Hg10 mi
3:56 PM65 °FPassing clouds.23 mph73%30.06 "Hg10 mi
2:56 PM68 °FPassing clouds.18 mph70%30.06 "Hg10 mi
1:56 PM70 °FPassing clouds.20 mph68%30.07 "Hg10 mi
12:56 PM67 °FPassing clouds.9 mph76%30.07 "Hg10 mi
11:56 AM65 °FPassing clouds.7 mph76%30.09 "Hg10 mi
Weather by CustomWeather, © 2016

See weather overviewHow to use our weather pages